Theta_e
353 353 352 352 351 352 352 353 353 352 351 351 351 351 351 351 353 354 354 353 353 353 354 353 351 351 353 353 353 352 352 352 351 352 353 352 352 351 351 353 354 352 351 350 349 349 348 349 349 349 349 348 349 349 349 349 349 349 350 350 351 352 352 353 354 353 352 350 348 347 347 348 348 349 350 351 352 351 349 350 354 354 353 353 353
354 353 352 351 351 352 353 354 353 352 351 350 349 349 350 352 353 354 355 354 352 353 355 354 352 352 353 353 353 353 353 354 353 352 353 353 353 352 351 353 355 353 351 351 351 349 349 349 350 349 348 348 348 348 348 348 349 349 349 349 350 351 351 352 353 352 351 351 350 348 348 348 348 349 350 350 352 353 351 350 353 355 353 353 355
355 354 353 352 352 353 354 354 353 352 352 350 348 347 349 352 354 354 354 354 353 353 355 355 355 355 356 356 356 355 355 355 355 354 354 354 354 353 352 353 355 355 353 352 352 351 350 350 350 348 347 346 346 347 348 348 349 349 349 349 350 350 351 352 352 352 351 350 349 348 348 349 348 348 350 350 350 353 353 351 352 354 354 353 354
356 356 355 354 353 354 354 354 353 352 351 350 349 349 349 351 354 355 354 354 354 354 354 355 355 356 357 357 356 356 356 356 356 356 356 355 355 354 353 353 354 355 354 353 352 351 350 350 350 348 346 345 346 347 348 350 350 349 350 350 350 350 351 351 353 353 352 350 349 348 349 349 348 348 349 351 351 353 354 351 350 352 353 353 352
356 356 357 356 354 354 354 353 352 351 350 350 350 350 350 351 353 354 353 354 355 355 355 354 354 356 357 357 356 356 356 355 356 356 355 355 355 355 354 353 353 354 354 354 352 351 351 350 349 348 347 345 346 347 348 350 350 350 350 350 350 351 350 351 353 354 354 352 350 350 351 350 349 349 351 354 353 353 353 351 349 350 352 353 351
356 356 356 356 354 354 354 353 352 350 350 350 350 351 351 351 351 352 353 354 355 355 356 355 354 355 355 355 354 355 355 355 356 356 355 355 355 355 355 354 354 354 353 354 353 352 352 351 350 349 348 346 346 346 348 349 350 350 350 351 350 351 351 352 353 354 355 354 352 352 352 351 351 350 352 353 351 350 353 352 350 350 351 352 350
356 356 356 356 354 354 353 353 353 352 351 350 350 352 352 351 351 352 352 353 354 355 356 355 355 355 355 356 355 355 355 355 356 355 355 355 355 355 354 354 354 353 353 353 353 353 353 353 352 350 350 348 347 347 347 348 349 349 350 351 351 351 351 352 353 353 355 355 353 352 352 352 352 351 352 353 351 350 352 353 352 350 350 351 350
357 357 357 354 353 354 353 352 353 353 352 351 351 353 352 352 352 351 352 353 353 354 355 354 355 356 356 357 357 356 356 356 356 355 355 356 355 354 354 354 353 353 353 353 353 354 353 354 354 353 352 352 351 349 348 348 348 348 348 349 350 351 352 352 352 353 354 354 352 352 352 352 352 352 353 355 355 353 352 352 353 351 352 352 351
357 358 358 352 350 352 353 352 353 353 354 354 354 354 352 351 351 351 351 353 353 354 354 354 355 356 356 357 357 357 356 356 356 356 355 355 355 355 355 354 354 353 352 351 352 353 354 354 354 354 354 354 353 353 352 351 350 349 349 350 350 351 353 353 352 351 352 353 353 352 352 352 354 354 354 355 357 355 352 352 353 351 350 352 353
357 358 359 354 349 351 353 354 354 355 355 355 354 353 352 351 351 351 352 352 353 353 353 354 355 355 355 356 356 356 355 354 354 354 354 355 356 356 356 355 355 354 353 352 352 354 353 353 354 354 354 353 353 353 354 353 352 351 350 351 352 353 354 354 354 352 352 353 353 352 351 351 353 355 354 354 355 354 353 352 352 352 351 351 352
355 356 358 357 353 353 355 357 357 356 357 356 354 352 352 351 351 352 352 353 353 354 354 354 355 354 354 355 355 355 354 353 352 352 352 353 355 357 357 356 356 355 354 354 353 353 353 353 353 353 353 353 353 353 353 353 353 352 351 351 351 353 355 356 355 353 352 353 353 351 350 350 351 352 353 353 354 354 355 353 352 355 355 352 353
354 354 356 356 356 356 357 358 358 357 357 356 355 354 353 353 354 353 354 353 354 355 354 354 355 355 355 355 355 355 354 353 352 351 352 352 353 355 356 356 356 356 355 355 354 353 353 353 353 353 353 353 353 353 354 353 353 352 351 350 349 349 351 353 355 354 353 353 353 352 351 350 349 351 352 352 352 354 355 353 353 355 355 354 356
354 355 356 356 357 357 357 357 357 356 355 355 356 356 354 355 355 355 355 355 354 355 355 355 356 355 355 355 355 355 354 354 353 352 352 353 353 354 355 355 356 355 355 355 354 353 353 353 353 353 353 352 352 353 354 355 355 354 353 352 351 350 349 349 351 352 353 353 353 353 353 351 350 349 350 351 353 354 354 354 354 356 356 356 355
354 355 356 357 358 357 357 357 356 356 356 356 358 356 353 355 355 355 355 355 355 356 356 356 357 357 355 355 355 355 354 354 354 353 353 353 353 353 354 354 355 355 355 355 354 354 354 353 353 353 353 353 352 352 353 354 355 356 356 355 354 354 353 351 350 350 350 352 353 353 354 354 352 351 350 352 353 353 353 356 357 357 356 356 354
354 355 355 356 357 357 357 357 357 357 357 357 357 355 353 354 356 355 355 355 355 356 356 358 359 358 357 355 355 355 355 354 353 352 351 352 352 353 353 354 354 355 355 354 354 354 354 354 354 353 353 354 353 353 353 353 354 356 357 357 356 356 356 355 353 352 351 352 352 352 353 354 354 354 353 353 354 353 354 355 356 358 357 356 356
353 354 354 355 357 356 356 357 358 358 357 356 356 355 354 355 356 357 356 355 355 356 357 359 359 357 357 357 355 356 355 354 354 352 352 351 352 353 353 354 354 353 354 354 354 353 353 353 353 353 352 352 352 352 351 351 352 354 355 356 357 357 356 355 354 354 354 354 354 353 353 352 353 354 354 355 355 355 356 354 353 357 359 357 358
352 352 352 354 355 354 354 355 356 356 357 358 357 355 355 354 354 357 357 356 355 355 357 358 358 358 359 357 356 355 356 355 355 353 352 352 352 354 354 353 353 353 352 353 353 352 352 351 351 351 351 351 351 350 350 350 350 351 352 352 353 354 354 354 354 354 355 355 354 354 354 353 353 353 353 355 355 354 355 354 351 355 358 358 357
347 349 350 352 354 354 355 355 353 352 355 357 357 358 357 354 354 356 355 354 355 355 355 356 356 356 357 357 356 356 356 356 355 353 353 352 353 354 354 353 353 352 352 352 351 351 350 350 350 350 351 350 350 350 349 349 349 349 349 350 350 351 351 351 353 353 354 355 355 355 355 354 353 353 352 354 354 353 354 353 351 354 358 358 355
342 344 347 350 352 352 353 354 354 353 353 354 355 356 357 356 356 354 351 352 354 355 354 354 355 355 355 356 356 355 356 357 355 353 353 352 352 353 353 352 352 352 352 351 350 350 349 349 349 349 349 349 349 349 349 348 349 349 348 348 349 350 350 350 351 351 352 354 354 354 354 355 355 354 353 353 353 353 353 352 351 353 356 356 354
341 343 345 347 349 350 351 352 352 353 353 353 354 354 356 355 354 352 351 352 353 354 354 354 354 354 355 357 357 355 356 356 355 354 353 352 352 353 353 352 351 351 351 350 350 350 349 349 349 349 348 348 347 347 347 347 347 347 347 348 348 348 349 349 349 350 352 353 353 352 353 354 355 354 354 354 354 353 353 352 351 352 353 354 355
340 342 344 345 346 349 351 350 349 350 352 352 352 354 355 355 353 353 353 352 351 353 355 354 354 354 354 355 355 355 355 355 355 355 354 353 352 352 353 353 351 351 351 350 349 349 349 349 349 348 348 348 347 347 347 345 345 345 345 346 347 347 348 347 348 349 349 350 351 352 351 351 353 353 353 354 353 352 353 353 352 353 354 354 355
338 340 342 344 345 347 349 349 348 348 349 350 351 352 353 354 354 354 353 352 352 353 354 354 355 354 354 354 354 354 354 354 355 355 354 354 353 352 352 352 351 350 350 350 350 349 349 349 349 349 349 348 347 347 346 345 345 345 345 346 346 346 346 346 346 347 348 348 350 352 350 349 350 351 351 353 354 353 354 354 352 354 355 353 355
337 338 339 342 344 345 347 348 347 346 347 348 350 351 351 353 354 354 353 353 353 354 356 356 355 354 353 353 353 354 354 354 354 353 353 353 352 351 351 351 351 351 351 350 349 349 348 349 349 349 349 348 347 347 346 346 346 346 346 346 345 345 345 345 345 345 346 348 349 350 349 348 349 349 348 351 354 353 354 354 353 354 355 354 355
336 337 337 339 341 342 346 348 346 345 346 347 348 350 351 352 354 354 353 352 351 351 353 354 352 351 351 351 352 353 354 354 354 353 352 352 351 351 351 351 351 350 350 350 349 348 348 348 348 348 347 347 347 346 345 346 346 345 345 345 344 344 344 343 343 344 345 346 346 348 348 348 349 348 346 349 353 353 354 356 355 354 355 355 357
336 336 336 337 338 339 344 347 347 345 345 346 347 348 349 350 351 351 351 351 351 349 348 348 349 349 350 349 350 352 352 353 352 352 351 351 350 350 350 350 350 349 349 348 348 348 347 347 347 347 346 345 345 344 344 345 346 346 345 345 344 344 343 343 343 343 344 345 346 347 348 348 348 348 348 350 351 352 356 358 357 355 356 358 361
336 336 336 336 336 337 340 345 348 347 345 345 345 346 346 347 349 348 348 349 351 351 350 350 350 350 351 352 351 352 352 352 352 351 350 350 350 349 348 348 348 349 348 347 347 347 347 347 346 346 345 344 344 344 345 346 345 345 345 345 345 344 343 343 343 343 344 345 346 347 348 348 349 349 348 348 350 353 357 358 358 359 359 360 361
335 335 335 335 336 336 337 340 345 347 345 344 344 344 344 345 345 347 348 348 349 350 352 351 350 351 354 354 353 352 352 351 351 351 350 350 350 349 349 348 348 348 347 346 346 347 347 347 346 345 345 345 345 345 345 345 345 345 346 346 346 345 344 343 343 344 344 345 346 347 347 348 350 349 348 348 350 354 357 358 357 356 355 356 358
334 334 334 335 335 336 335 336 340 345 346 346 344 343 342 342 342 344 346 347 348 348 349 349 348 349 352 352 351 350 351 351 351 350 350 350 350 350 350 350 349 348 348 347 347 347 347 347 346 346 347 347 347 347 347 347 347 347 347 347 347 346 345 343 343 344 344 345 346 346 347 348 348 348 349 351 352 353 354 355 355 352 350 353 356
334 334 334 335 335 336 336 334 335 340 345 347 346 344 344 342 341 341 343 345 346 346 347 347 347 347 350 351 349 348 349 350 350 350 350 349 349 349 349 349 349 349 349 348 348 348 348 347 346 347 347 347 348 347 347 348 348 348 347 348 347 345 345 345 344 345 345 345 346 346 346 347 348 349 351 353 353 351 351 352 352 352 352 353 353
333 333 334 334 334 335 335 334 333 335 340 344 345 345 344 342 340 340 340 340 340 341 344 346 346 346 349 351 351 350 350 351 351 350 350 349 348 347 347 347 348 348 348 349 348 347 347 347 347 346 346 347 347 346 346 347 348 348 348 348 347 346 345 346 346 346 345 346 346 346 346 348 349 350 351 351 351 351 351 351 351 351 351 350 350
334 334 334 333 334 335 336 335 335 335 337 339 341 342 341 340 340 340 339 337 335 336 339 341 343 344 346 347 349 350 350 351 351 351 351 350 349 349 348 348 348 348 347 348 347 346 347 347 347 346 346 346 346 345 346 346 347 348 348 348 347 346 346 346 347 346 346 346 346 345 345 347 349 350 350 350 350 349 348 349 349 349 348 348 348
334 334 334 334 335 336 337 337 337 337 336 336 337 339 340 339 339 339 340 340 338 335 334 336 339 341 342 344 345 346 347 348 348 349 349 349 349 348 348 348 348 347 347 346 344 344 347 348 346 344 345 345 344 344 345 346 347 348 348 348 347 346 346 346 346 346 346 347 346 345 345 345 347 349 349 349 347 346 345 346 346 347 347 347 348
333 333 334 334 335 336 337 337 337 337 337 336 336 337 338 337 337 337 338 340 340 339 337 337 338 339 341 342 343 343 344 344 345 346 347 347 346 345 345 346 346 346 345 343 342 345 348 347 345 345 344 344 343 343 344 345 346 347 348 347 347 347 347 346 345 345 346 346 345 345 345 344 345 346 346 346 345 345 345 345 345 345 346 346 347
332 333 333 334 335 335 336 336 336 337 337 336 336 337 337 337 337 337 336 337 338 340 341 341 341 340 341 342 343 343 343 343 343 344 344 344 343 343 343 343 342 342 342 341 341 345 348 346 345 345 344 343 343 343 344 345 345 346 347 347 347 347 346 345 345 345 345 346 345 344 344 344 344 344 344 344 344 344 344 344 344 344 344 344 345
333 333 333 334 335 335 335 335 336 336 336 336 336 336 335 336 337 336 337 336 336 337 338 340 340 341 342 343 344 344 343 343 343 343 343 343 342 341 340 339 339 340 341 340 340 344 347 347 346 346 346 344 343 343 344 344 345 346 347 346 346 347 346 346 345 345 345 345 346 345 344 344 344 344 343 343 343 343 343 343 343 343 343 343 344
333 333 333 333 334 335 335 335 335 335 335 335 335 334 335 335 335 335 336 336 336 336 336 336 337 339 342 344 344 344 343 343 343 343 343 342 342 340 338 338 340 342 344 343 344 345 347 347 347 347 347 344 342 342 343 344 344 345 346 346 346 346 346 346 346 345 345 345 346 346 345 344 344 344 343 343 343 343 343 343 343 342 343 344 345
332 333 333 333 333 333 334 335 335 335 335 335 335 334 334 334 334 335 335 335 335 335 335 335 336 338 341 344 345 344 344 343 342 342 342 341 340 339 338 339 342 344 345 346 347 347 347 347 347 347 347 345 342 342 343 343 344 344 345 346 346 346 346 346 346 345 346 345 345 345 345 345 345 344 344 344 344 344 344 344 344 344 345 345 346
332 333 333 333 333 333 332 333 334 334 334 335 335 335 334 334 335 335 335 335 335 335 334 334 335 336 339 344 345 344 344 342 341 341 341 340 339 338 336 338 342 344 344 346 347 347 348 348 347 347 346 346 344 343 342 342 343 343 344 345 346 346 346 346 346 346 346 346 345 346 346 346 346 345 344 344 344 344 344 345 345 345 345 345 344
332 332 332 332 332 332 332 333 333 333 334 334 334 334 334 334 334 334 335 335 335 335 334 335 335 336 339 342 343 343 344 343 343 343 342 341 340 338 337 338 341 343 344 345 345 347 348 348 348 347 346 346 346 345 343 342 342 342 342 344 345 345 346 346 345 346 346 346 346 346 346 346 347 346 345 345 345 344 344 345 344 344 344 343 343
331 331 331 331 331 331 331 332 332 333 334 333 334 334 335 334 334 335 335 335 336 336 336 336 337 339 341 342 343 344 345 343 343 343 343 343 343 342 341 341 342 343 343 344 345 346 347 348 348 348 347 347 346 346 345 344 343 342 342 342 343 344 345 345 345 345 345 345 345 346 346 347 347 347 346 345 345 345 344 344 344 343 342 341 342
330 330 331 332 331 330 331 331 332 333 333 333 334 335 335 334 334 335 335 335 336 337 337 338 339 340 342 343 343 343 342 341 340 340 341 342 343 343 344 344 343 343 344 344 344 345 346 347 347 348 348 348 347 346 346 345 344 343 343 342 342 343 343 344 345 345 345 345 345 345 345 346 346 347 346 346 345 344 344 344 344 343 342 341 341
328 329 329 330 330 330 330 331 333 333 333 333 333 334 335 336 336 336 336 337 337 337 338 338 338 340 341 342 342 341 340 340 339 339 340 340 340 341 342 342 343 344 344 344 344 344 345 346 347 347 347 348 347 347 346 345 345 344 343 343 343 343 342 342 343 343 344 344 344 344 345 345 345 345 345 345 344 344 344 343 343 343 342 342 341
330 331 330 330 330 329 328 329 331 332 332 332 332 333 334 335 336 335 335 336 337 338 339 338 338 338 339 341 341 339 339 339 338 338 338 339 339 340 340 340 341 342 343 343 344 344 344 345 346 346 347 347 347 347 346 345 345 345 344 343 343 343 343 343 342 342 343 343 344 344 344 344 345 344 344 344 344 344 344 344 343 343 343 343 342
330 331 330 330 331 331 330 330 331 331 330 330 332 332 333 334 335 335 335 335 335 337 338 338 338 338 339 339 340 339 338 338 337 336 337 337 338 338 339 339 339 340 341 342 343 343 344 344 344 345 346 345 345 345 346 346 345 345 344 344 343 342 342 342 342 342 343 343 343 344 344 344 344 344 344 344 344 344 344 344 343 343 343 343 343
328 329 329 329 330 330 331 332 333 333 331 331 331 333 333 333 333 333 334 335 335 336 336 337 338 338 339 339 339 338 337 337 336 335 336 336 336 336 337 337 338 339 340 340 341 342 342 342 342 343 343 343 343 344 345 346 346 345 345 344 344 343 342 342 342 342 342 343 343 343 344 344 344 344 344 344 344 344 344 344 344 343 343 343 344
326 327 327 328 328 328 329 330 332 333 333 332 331 330 332 334 333 332 332 333 335 336 336 336 337 338 338 337 337 337 337 337 336 335 336 335 335 336 336 337 337 338 339 339 340 340 341 341 341 341 342 342 342 343 344 345 345 345 345 344 344 343 342 342 342 343 343 343 343 342 342 343 343 343 344 344 343 343 343 344 343 343 343 343 343
324 324 325 325 325 326 326 328 329 331 332 331 329 328 330 333 335 334 333 332 333 334 335 336 337 337 337 336 336 337 337 337 336 336 336 336 337 337 337 337 338 338 338 339 339 339 340 340 340 341 341 341 342 342 342 343 344 344 344 344 343 343 342 342 343 343 343 344 343 342 341 342 343 343 343 343 342 342 342 342 342 343 343 343 343
320 321 321 322 322 322 323 325 326 327 327 327 327 327 328 330 331 332 333 334 334 331 331 332 334 334 334 335 335 335 335 335 335 336 336 336 337 337 337 337 337 338 338 338 339 339 339 339 339 340 340 340 340 341 341 342 343 343 343 343 343 342 342 342 342 343 344 344 344 343 343 343 342 341 342 342 341 341 341 341 340 341 341 341 341
316 316 317 317 318 318 319 319 320 321 321 321 322 323 324 325 326 326 328 331 331 329 328 328 330 331 332 332 332 331 331 331 332 333 334 335 335 335 335 335 335 336 337 337 338 338 339 339 339 339 340 339 340 340 340 341 341 342 342 342 343 342 342 342 342 342 343 345 345 344 344 343 342 341 341 341 341 340 340 340 339 339 340 340 340
313 313 313 313 314 314 314 314 315 315 316 316 317 318 319 320 320 320 321 322 324 323 323 324 324 325 327 327 328 328 328 329 329 329 330 331 331 332 332 332 333 334 334 335 336 337 338 338 338 339 339 339 340 340 340 340 340 341 341 342 342 342 342 342 341 341 341 343 344 343 342 341 342 341 340 340 340 340 340 339 339 339 339 339 338
310 310 310 310 310 310 310 311 311 311 311 311 312 313 313 314 315 315 315 315 315 316 316 317 317 318 319 320 320 320 321 321 321 322 322 323 324 325 326 326 327 328 329 330 332 334 335 336 337 338 338 339 339 340 340 340 340 340 340 340 341 341 341 341 341 341 341 341 341 341 340 340 340 340 340 340 340 340 339 339 338 338 338 338 337
Wind_Speed
6 6 6 5 4 3 2 2 4 7 9 9 9 8 10 11 10 9 11 13 13 11 11 12 13 13 12 12 13 14 15 16 16 16 16 16 16 16 16 17 18 18 18 18 17 16 16 15 15 14 13 13 13 13 13 13 13 13 13 13 12 12 11 11 10 9 10 10 11 13 11 8 9 11 11 11 11 12 13 12 12 13 13 12 13
4 5 4 3 4 4 4 5 8 10 10 11 12 12 12 13 11 9 11 14 15 13 12 12 13 13 12 12 12 13 13 14 15 15 16 16 17 17 16 17 18 18 18 18 18 18 17 16 16 15 15 15 15 15 14 14 14 14 14 14 14 14 12 12 11 11 11 10 10 13 13 10 10 11 12 13 12 12 13 14 13 13 13 13 13
4 4 2 3 3 3 6 9 11 12 11 12 14 15 15 14 11 11 13 14 15 14 12 12 12 12 12 11 11 12 12 13 14 15 15 15 16 17 16 16 17 17 18 18 19 19 18 17 17 17 16 16 16 16 16 15 15 15 15 14 14 14 14 13 12 12 12 11 10 12 12 11 12 12 11 12 13 12 13 14 14 14 14 14 14
5 5 5 5 4 5 10 12 13 12 11 11 14 15 16 14 11 11 14 14 14 14 13 14 14 12 12 12 12 13 13 13 14 15 15 15 16 16 16 16 16 17 18 18 18 19 19 19 18 18 18 17 17 17 16 16 16 15 15 15 15 15 14 13 13 13 13 12 11 12 11 11 12 13 11 12 12 12 13 13 14 14 15 15 14
5 6 6 7 7 8 13 14 13 13 12 12 13 13 14 13 12 12 14 14 14 15 14 15 15 14 13 13 13 14 14 15 15 15 16 15 15 16 16 16 16 16 17 17 18 19 19 20 20 19 19 19 18 18 18 18 17 16 16 16 15 15 15 15 14 13 13 13 13 13 12 12 12 12 11 10 10 11 12 14 15 15 16 16 15
4 5 6 8 8 12 16 15 14 14 14 14 13 10 10 11 11 11 13 14 15 14 14 15 15 15 14 14 14 14 15 16 16 17 17 16 16 16 16 16 17 17 18 18 18 19 19 20 20 20 20 20 20 19 19 19 18 18 17 17 16 15 15 16 15 14 14 14 15 14 14 14 13 13 12 11 11 12 13 15 18 17 15 15 16
4 6 7 9 10 14 16 15 15 15 16 17 13 10 11 11 10 10 11 13 14 15 15 15 15 14 14 14 14 14 15 16 17 18 17 17 17 17 17 17 17 18 18 18 19 19 19 20 20 20 21 21 21 20 20 20 19 19 19 18 17 17 17 17 16 16 16 16 17 16 16 16 15 15 14 13 14 15 15 16 18 18 17 16 17
5 7 9 11 12 16 17 15 14 15 17 18 15 13 13 12 11 11 11 12 14 15 15 15 14 13 13 13 14 14 15 16 17 17 17 16 16 16 16 17 18 18 18 18 19 19 20 20 20 20 20 21 21 21 20 20 19 20 20 19 18 18 18 18 18 18 18 18 18 17 17 16 16 16 15 13 14 16 17 16 15 15 17 17 17
6 7 9 12 14 17 16 15 15 16 16 16 14 13 12 11 11 11 11 13 14 15 15 15 15 14 14 14 15 15 16 17 17 17 17 15 15 16 16 17 17 18 18 18 19 19 19 20 20 21 20 20 21 22 22 21 20 20 19 19 19 19 19 19 19 18 18 18 19 18 18 17 17 17 16 16 16 16 16 15 15 16 17 17 17
8 7 8 10 12 15 17 16 16 16 15 14 14 13 12 11 11 12 12 13 14 15 15 15 16 17 16 17 18 18 18 18 19 20 19 16 15 16 17 17 17 17 17 18 18 18 19 20 20 21 21 22 22 23 24 25 24 23 21 20 19 19 19 20 20 20 19 19 19 20 20 20 19 18 18 19 18 16 15 16 17 17 16 17 18
7 8 7 7 8 11 13 13 14 14 15 15 15 15 14 13 13 13 13 13 14 15 16 16 17 19 19 20 20 20 19 19 20 22 23 21 19 17 17 16 16 17 17 18 18 18 19 20 20 21 21 22 23 25 27 28 29 29 28 27 24 22 21 21 21 21 21 20 21 21 21 22 22 21 20 19 19 18 17 17 17 16 14 15 15
6 6 7 7 7 8 9 11 12 13 14 16 16 15 15 15 14 13 13 14 15 15 16 17 18 19 20 21 21 21 20 19 20 21 21 24 23 20 18 16 16 17 17 18 18 19 19 20 20 20 20 21 22 23 24 27 29 32 33 33 32 31 29 27 25 23 22 21 22 22 22 23 24 23 22 21 19 17 16 17 19 18 15 14 14
5 6 8 9 9 9 10 11 13 14 14 15 15 16 16 16 16 15 14 14 15 16 17 18 18 18 19 20 20 21 20 19 19 19 19 21 22 20 18 17 16 16 16 17 17 17 18 18 18 19 19 20 21 21 21 22 24 27 30 31 33 34 35 36 34 32 29 25 24 25 24 24 24 25 24 23 20 17 16 18 20 18 16 15 17
7 7 8 10 10 10 10 11 13 13 12 11 13 15 17 17 16 16 16 16 16 17 17 17 17 18 19 19 19 19 19 19 18 18 18 19 19 19 18 18 17 17 17 17 17 17 17 17 18 18 18 18 19 19 19 20 20 22 24 27 30 31 33 36 38 39 39 35 31 29 27 25 25 26 24 23 22 21 21 20 18 17 18 19 22
9 8 9 10 10 10 9 10 11 10 10 10 12 16 18 17 17 17 17 17 18 17 16 16 17 17 18 18 18 18 19 19 17 17 17 18 18 18 19 19 19 19 18 18 19 18 18 18 19 20 19 19 19 19 19 19 19 20 21 23 26 28 29 33 35 37 40 40 38 36 32 29 27 27 26 24 24 24 24 22 19 17 18 19 19
12 11 11 11 10 10 10 10 11 11 11 12 14 16 18 18 18 17 17 18 18 18 16 15 16 17 17 17 18 17 17 18 18 17 17 17 17 18 18 19 20 20 19 19 19 19 20 20 20 21 22 22 22 22 22 22 21 22 22 23 25 26 29 32 34 36 37 38 38 38 37 35 31 29 28 26 26 24 23 23 22 17 16 16 16
13 13 12 12 12 11 11 10 10 11 13 13 14 16 17 18 18 17 17 18 19 18 17 16 16 16 16 17 18 18 17 17 18 18 18 18 18 18 18 19 20 21 20 20 20 20 21 22 22 22 23 24 23 22 23 24 25 26 26 27 28 28 30 31 32 35 38 40 40 40 40 40 37 35 32 30 29 27 23 23 24 20 17 16 15
14 14 14 14 14 13 12 11 10 11 12 13 14 15 16 18 19 18 19 20 20 18 18 17 17 17 17 17 18 18 16 16 18 19 19 20 20 19 19 19 20 21 21 21 22 22 23 23 24 24 23 23 23 23 23 25 26 28 29 29 28 30 31 30 29 31 35 38 42 43 43 42 42 40 37 34 34 32 28 25 25 22 19 19 19
15 16 17 17 16 14 13 12 10 11 12 13 13 14 16 18 19 20 21 20 18 18 18 17 17 18 17 16 17 18 17 16 17 19 20 21 21 19 19 20 21 21 21 21 21 22 22 23 23 24 24 25 25 26 27 27 26 28 30 29 29 32 32 30 30 30 29 31 36 41 44 45 44 43 42 39 37 37 34 29 26 24 21 20 21
16 17 18 19 18 15 13 13 11 11 12 13 14 15 17 18 19 20 21 19 17 17 17 17 17 17 16 16 17 18 18 16 17 20 21 20 20 19 19 21 21 20 20 21 20 21 21 21 22 23 25 26 27 28 29 29 29 31 31 29 31 33 31 29 30 30 28 27 30 34 38 40 42 43 42 41 40 40 39 34 29 28 25 23 22
16 16 17 19 20 17 14 13 13 12 12 13 14 16 17 18 19 18 18 18 18 17 17 17 17 17 17 17 17 17 18 18 18 20 20 19 19 19 20 21 21 20 20 20 20 20 20 20 20 22 23 24 25 26 27 28 29 31 33 33 34 35 33 31 31 31 31 31 29 29 31 34 38 41 41 41 41 39 38 37 33 30 29 26 23
15 16 16 18 19 18 15 14 12 12 12 13 14 15 16 18 19 18 17 17 18 18 17 16 16 16 16 17 16 17 18 18 18 18 19 19 20 21 21 21 21 21 20 20 20 20 20 20 20 21 22 23 24 26 28 29 31 34 36 38 39 39 38 36 33 31 32 32 29 28 29 32 35 38 40 43 44 41 37 38 37 33 31 29 25
14 15 16 17 19 18 15 14 12 12 12 12 13 14 15 16 18 19 18 17 17 17 15 13 12 13 15 16 16 16 17 18 18 19 19 20 21 22 22 22 21 20 19 20 22 22 22 21 21 21 23 24 25 27 29 31 33 35 37 38 38 39 39 39 36 34 33 32 31 32 35 36 35 36 37 39 43 43 38 36 36 34 32 31 28
14 15 15 16 18 18 15 13 12 12 11 12 12 14 14 15 16 18 17 16 16 15 12 11 11 12 15 16 16 16 16 17 18 18 19 20 21 22 22 22 22 20 19 20 21 22 22 21 21 23 25 26 27 29 30 32 34 36 38 38 38 38 39 38 37 35 33 33 32 33 37 40 39 39 39 37 40 42 37 33 34 35 33 30 26
14 15 16 16 18 18 16 13 12 11 11 11 12 12 13 13 15 16 17 15 14 13 13 12 12 13 15 16 15 14 15 16 16 16 17 17 19 21 22 22 21 21 22 21 20 20 21 23 24 27 28 29 30 30 31 32 32 33 33 33 33 36 38 36 35 34 34 35 33 31 35 40 41 41 42 41 42 39 32 28 29 30 29 26 21
15 16 17 17 18 18 18 15 12 10 10 11 11 11 11 12 12 13 15 14 13 12 13 12 12 13 14 14 14 13 14 14 14 15 15 15 16 17 18 20 20 21 23 23 22 23 24 25 26 27 28 28 28 28 28 29 29 29 28 29 31 33 35 35 34 34 34 33 32 32 35 36 36 39 42 42 41 35 27 24 24 25 25 22 19
16 17 17 17 17 18 19 16 12 10 11 12 11 11 10 10 11 11 12 13 13 13 13 13 13 13 12 13 13 13 14 15 14 14 13 14 15 15 14 15 16 17 19 20 20 21 21 21 22 22 23 23 23 23 24 26 26 25 23 24 27 29 30 32 32 32 32 31 31 34 36 33 32 36 40 40 38 32 28 26 27 26 24 22 19
17 18 18 19 18 18 19 18 15 12 11 11 12 12 11 10 10 10 10 11 12 13 13 13 13 13 12 12 12 13 14 15 15 14 13 13 15 15 15 14 14 14 15 16 16 16 16 16 18 20 19 19 20 21 22 22 22 21 21 22 23 25 26 28 28 29 32 33 34 36 37 35 35 36 36 35 34 33 31 28 27 26 26 24 20
17 18 19 19 19 19 19 19 17 14 12 11 12 13 12 11 10 9 9 9 12 13 14 14 14 14 13 13 13 13 14 14 14 16 17 17 17 17 16 17 16 15 14 14 14 13 12 14 17 18 18 19 19 19 20 19 19 20 21 20 21 22 22 22 23 25 27 29 32 35 35 33 33 34 32 31 32 33 32 30 27 24 24 24 20
18 18 18 19 19 19 19 18 18 16 14 12 12 12 13 13 12 10 9 9 10 12 14 16 16 15 15 14 14 15 15 15 14 14 16 18 20 20 19 19 19 18 15 14 15 13 12 13 16 18 17 18 19 19 19 18 18 19 19 17 16 19 20 19 19 22 24 25 29 33 33 30 28 29 28 27 29 30 30 30 28 25 23 22 20
18 18 17 18 19 19 19 18 18 17 16 15 14 14 14 14 14 13 12 11 10 10 12 14 16 17 18 19 20 19 19 20 19 18 16 17 18 19 19 20 20 19 17 17 17 15 13 14 17 18 17 17 18 19 18 18 17 18 18 16 16 19 20 18 18 19 21 24 28 30 30 27 27 29 29 27 27 27 27 26 26 24 23 23 21
19 18 18 18 19 20 19 19 18 18 18 17 16 16 16 15 15 15 14 12 11 11 11 12 14 16 18 21 24 25 25 24 23 22 21 21 20 20 21 21 20 19 19 18 17 15 14 17 19 19 18 18 19 18 17 17 17 17 17 15 15 17 19 18 16 16 16 18 22 25 26 24 22 23 27 28 26 23 23 23 23 22 22 22 20
20 19 19 19 19 20 20 19 19 18 18 18 16 16 16 16 15 15 14 13 14 14 13 13 13 14 15 18 21 25 27 26 25 24 24 24 23 21 20 20 20 20 19 18 17 16 17 19 20 19 19 19 19 18 17 16 16 16 16 15 15 16 16 16 15 14 12 12 14 18 21 22 20 18 20 24 25 21 21 22 22 21 19 19 18
21 21 21 20 20 21 20 20 19 18 18 18 17 17 16 16 16 16 15 14 15 15 15 14 13 13 15 16 17 19 22 23 23 23 22 22 23 22 20 20 20 20 20 19 18 18 19 20 19 19 20 19 18 18 17 16 16 15 15 15 15 15 14 14 15 14 11 9 10 11 13 15 16 15 14 18 20 19 18 20 20 18 17 17 17
21 21 21 21 21 22 21 20 19 18 18 18 18 17 17 16 16 16 16 16 15 15 15 14 14 13 15 15 14 14 16 17 17 18 18 17 17 18 19 18 17 17 19 20 20 20 21 21 20 19 19 19 18 18 16 16 16 15 15 15 15 14 13 12 13 13 12 10 8 8 9 11 12 11 11 13 16 17 17 18 19 19 19 19 20
20 20 21 21 21 21 21 20 19 19 19 19 18 18 17 17 16 16 16 17 17 16 16 16 15 14 15 16 15 13 12 12 13 14 15 15 15 15 16 16 15 15 16 18 19 20 21 21 21 20 20 20 19 18 17 16 16 15 15 15 15 14 13 12 12 12 11 11 10 8 9 11 12 12 13 15 17 18 18 19 21 22 23 23 22
20 19 20 20 20 20 19 19 19 19 19 19 19 19 18 18 17 17 17 17 17 17 17 16 15 14 15 17 16 13 10 9 9 10 12 13 14 16 17 15 15 16 17 18 18 19 19 19 19 20 20 19 19 18 17 17 16 15 15 15 15 14 14 12 12 11 11 11 11 11 11 11 12 13 15 16 17 19 20 21 21 22 23 23 21
20 20 20 20 20 20 19 19 19 19 19 19 19 19 19 18 17 17 17 16 16 17 17 17 16 15 15 14 12 11 10 9 9 10 11 12 14 17 17 15 16 18 19 18 18 18 18 18 18 18 18 18 18 19 18 17 17 16 15 15 15 15 14 13 13 13 12 12 12 12 12 12 12 13 14 16 18 20 21 21 22 22 21 21 21
19 20 22 22 21 21 20 20 19 19 19 19 19 19 18 18 17 17 16 16 16 17 17 16 16 16 15 12 10 9 9 9 9 9 10 11 12 13 14 14 15 18 19 19 19 18 18 18 18 18 18 18 19 19 18 18 18 17 16 15 15 15 15 15 14 14 14 15 14 12 12 13 13 13 15 17 19 21 22 22 22 21 20 20 20
19 20 20 19 19 20 20 19 19 18 18 18 18 17 17 17 17 16 16 16 15 15 15 15 14 14 13 10 9 9 10 10 10 9 9 10 10 11 13 13 15 17 18 19 19 18 18 18 18 18 19 20 20 19 19 18 19 18 17 17 16 15 15 15 15 15 15 15 15 15 15 15 14 14 16 18 19 21 23 23 21 21 22 22 20
22 22 19 17 18 20 19 18 17 17 16 16 16 16 16 16 15 15 15 15 15 14 14 14 14 12 10 10 11 11 11 11 10 10 10 11 11 12 13 14 15 16 17 17 18 18 18 18 18 18 19 20 20 19 18 19 19 19 18 18 17 16 16 15 16 16 16 16 16 17 16 16 16 16 17 19 19 19 20 21 20 19 20 21 20
23 24 22 20 20 20 19 18 16 16 16 16 16 16 16 14 14 14 13 14 14 14 13 14 13 12 10 11 12 13 11 10 11 11 11 11 12 12 13 14 15 16 16 17 17 18 18 18 18 18 19 19 19 19 19 20 20 20 20 19 18 18 18 17 17 17 17 17 18 18 17 18 19 18 18 20 19 18 19 20 20 19 20 21 22
20 21 20 20 19 20 21 20 17 15 15 16 16 17 16 14 14 14 13 13 13 13 13 14 13 13 12 11 12 13 12 11 12 12 12 12 12 12 12 13 13 14 15 16 16 17 18 18 18 18 19 19 19 19 20 21 20 20 20 20 20 20 19 19 18 18 18 19 19 19 18 19 19 19 19 19 19 19 20 21 20 21 22 23 23
18 18 19 18 16 16 18 18 16 16 19 20 18 17 16 16 15 14 13 13 13 12 13 13 13 12 11 10 12 13 13 13 13 13 13 12 12 12 12 13 13 13 14 14 15 16 17 18 19 19 20 21 21 20 20 20 21 21 21 21 21 21 21 21 20 19 19 19 19 19 19 19 19 19 19 19 19 20 21 22 22 23 24 24 24
21 18 18 19 18 16 15 13 12 14 17 18 16 16 16 17 17 16 15 14 14 13 12 13 12 12 11 11 11 12 13 13 13 13 13 13 13 13 13 13 13 13 13 14 15 15 17 18 19 19 20 22 22 22 21 21 21 22 22 22 22 21 22 22 21 20 20 20 20 20 20 20 20 20 19 19 20 21 22 23 24 24 24 24 24
25 23 21 19 19 19 17 13 10 10 12 14 17 19 17 14 14 15 17 16 14 12 11 11 11 11 11 11 11 11 12 12 12 12 12 13 13 13 13 13 13 13 13 14 15 16 17 19 19 20 21 22 22 23 23 22 22 23 24 24 24 25 24 22 20 20 21 21 22 22 21 20 20 20 20 21 22 23 24 24 25 25 25 25 23
23 24 24 23 22 22 21 18 14 12 11 12 16 19 16 11 9 10 11 14 15 14 12 12 13 11 10 10 10 10 10 10 10 10 11 11 12 12 12 13 13 14 15 16 16 17 18 19 19 20 21 22 22 23 23 23 23 24 25 25 26 28 27 23 20 21 21 21 23 23 22 21 21 21 22 24 24 24 25 24 23 23 23 23 21
20 20 20 20 21 22 22 21 19 17 17 18 19 19 19 17 14 11 9 10 12 14 15 16 15 11 8 8 9 10 10 11 11 11 11 11 12 12 12 12 13 14 16 17 17 18 19 19 20 21 21 22 22 23 23 24 25 26 27 27 27 29 27 24 23 22 21 21 22 22 21 21 22 22 23 25 25 24 24 24 22 21 21 21 19
20 20 19 19 20 20 21 21 19 18 19 20 19 19 20 19 19 18 15 12 11 13 15 18 19 16 13 12 12 12 13 14 15 15 14 13 13 14 14 14 15 15 16 17 17 18 19 19 20 21 22 22 22 23 23 23 25 27 27 28 28 29 28 27 27 26 23 21 21 21 21 22 22 23 24 25 25 24 24 23 21 20 20 20 19
19 19 19 19 20 19 19 19 19 18 19 18 17 17 18 17 17 19 19 17 15 16 16 17 18 18 16 15 14 14 13 14 15 16 16 16 16 17 17 17 18 18 18 19 19 19 19 19 20 21 21 22 22 23 23 24 26 27 28 28 28 29 28 28 29 30 29 25 22 22 23 23 23 24 25 25 25 25 25 23 21 20 21 21 19
20 19 19 19 19 19 19 19 19 19 19 19 17 17 17 17 17 18 18 17 17 17 17 16 16 16 15 15 15 15 15 15 15 16 17 18 18 19 19 19 19 20 21 22 22 22 22 21 20 21 21 21 21 21 22 23 25 28 29 30 29 30 30 29 29 31 33 32 29 27 26 25 24 25 26 26 26 26 25 23 22 22 22 22 20
Wind_Direction
226 229 222 218 225 242 254 240 242 245 245 251 251 235 226 226 231 241 245 242 236 227 223 223 223 219 211 204 204 203 202 205 206 205 207 210 214 217 216 213 213 217 220 221 225 226 226 230 232 232 233 235 237 239 240 241 240 239 240 240 240 237 234 236 243 255 254 250 265 272 263 236 222 220 219 214 208 208 213 216 218 218 218 217 223
239 242 228 216 215 211 210 211 221 233 239 249 256 245 227 222 222 226 235 241 238 229 224 223 219 216 213 209 207 206 204 206 208 208 210 212 214 217 217 214 215 218 220 221 224 227 226 227 229 230 231 234 237 240 241 241 240 240 238 237 238 237 234 233 237 247 251 246 249 259 263 257 237 221 219 223 218 211 212 215 214 215 218 217 216
210 213 190 180 193 202 214 217 219 226 234 244 252 247 233 222 217 220 228 235 236 232 228 225 220 214 213 211 208 209 207 207 210 212 213 213 214 218 218 215 216 219 221 222 224 226 227 227 228 228 229 230 234 238 241 241 240 242 242 240 240 239 236 233 233 240 250 249 243 247 256 260 249 236 227 225 225 218 215 220 219 214 217 221 220
188 186 171 153 153 201 227 232 231 231 235 243 245 245 239 229 219 220 225 228 231 231 228 226 222 216 213 210 209 210 210 210 211 212 214 214 216 220 221 220 220 221 224 226 226 228 229 230 230 228 228 229 230 234 237 238 238 240 242 242 243 243 241 236 231 233 244 250 246 243 249 253 251 246 237 225 223 221 217 224 230 223 219 222 226
185 186 177 150 156 213 236 245 248 241 235 236 238 239 238 232 226 224 225 225 226 225 225 225 224 221 217 214 212 211 212 214 214 215 216 217 218 221 223 225 225 226 228 229 230 230 230 231 232 231 230 230 229 230 233 235 236 237 238 239 240 242 242 241 238 234 235 243 247 244 243 247 248 246 238 224 223 226 220 226 236 232 221 220 226
188 191 179 156 177 220 235 243 251 248 241 240 243 239 230 226 226 226 225 226 225 223 223 223 225 225 222 219 218 214 213 214 215 216 218 219 220 222 224 227 229 231 233 233 233 233 232 232 232 232 232 233 231 230 231 233 235 236 236 237 238 240 240 240 240 239 237 240 246 246 243 241 241 242 238 229 229 231 224 226 235 236 227 222 225
200 197 176 159 189 225 232 235 245 249 246 246 244 234 225 221 219 220 223 226 226 226 225 224 225 226 224 222 222 219 217 217 217 218 220 222 223 224 225 227 230 232 234 235 235 235 236 235 234 234 234 235 235 234 233 234 235 236 236 236 236 238 239 238 236 237 240 242 244 244 242 239 238 236 231 224 228 237 233 226 227 231 231 229 230
223 206 178 164 196 228 234 236 242 246 246 245 238 228 226 224 217 213 214 220 224 225 227 228 227 228 229 227 226 224 222 222 222 221 223 224 225 226 227 228 230 232 235 237 237 237 237 238 238 237 237 237 239 239 238 236 237 237 236 234 234 235 236 238 237 236 239 242 243 243 241 238 236 234 228 217 218 230 236 234 232 230 230 230 233
260 224 191 174 196 222 228 229 235 240 243 242 235 227 228 226 222 217 213 215 219 220 223 225 224 224 226 226 225 224 223 224 225 223 222 223 224 226 228 229 231 233 235 237 239 239 239 241 241 241 241 240 241 241 241 240 240 241 239 235 234 234 235 237 238 237 238 240 242 243 242 239 234 230 227 222 220 223 228 233 239 240 238 237 236
290 262 223 191 191 206 212 214 220 226 230 235 237 233 229 226 223 221 217 216 217 217 218 220 220 218 219 223 223 221 223 227 226 221 215 214 218 222 225 229 233 235 237 239 241 241 242 244 245 245 246 246 246 245 244 242 242 243 243 241 238 236 235 235 235 236 238 238 239 240 241 242 238 232 229 227 226 226 224 229 236 238 239 244 241
299 287 266 228 201 204 211 213 216 219 223 230 235 234 230 226 223 219 218 217 217 217 216 218 219 216 217 222 223 221 224 228 228 223 216 211 212 217 223 228 231 234 236 238 240 243 245 247 248 248 248 248 248 248 248 247 246 246 247 247 245 241 238 237 236 236 236 237 239 239 239 241 241 238 236 232 228 224 219 225 235 233 228 239 244
294 285 274 254 229 220 225 228 226 224 225 229 233 232 229 227 225 222 220 219 219 218 217 218 219 218 219 222 223 223 227 230 231 230 224 219 219 221 226 228 228 231 233 235 239 242 245 247 248 249 249 247 247 248 249 250 250 250 251 251 250 247 244 243 242 241 239 239 240 239 238 240 241 239 238 237 232 226 219 223 231 231 226 231 239
293 278 267 255 241 229 230 237 238 234 232 232 235 235 231 227 227 225 223 221 220 219 221 221 220 220 222 225 226 228 231 234 237 237 232 228 227 226 230 233 232 231 233 235 238 240 243 247 250 251 251 250 249 249 249 251 252 254 254 253 253 252 250 248 246 244 244 244 243 241 238 238 239 238 237 236 229 224 228 230 227 223 222 225 233
295 280 270 263 252 237 229 236 245 246 243 240 242 244 239 233 231 231 228 224 222 221 222 222 221 220 223 226 230 233 234 235 238 238 234 231 229 228 232 236 236 235 235 236 239 240 241 244 247 250 252 251 250 249 249 250 251 252 252 251 250 250 250 250 248 246 246 245 245 245 241 237 237 237 236 235 227 221 227 231 226 219 222 228 233
303 289 278 270 261 251 238 235 240 248 250 245 244 246 244 237 233 232 230 227 224 223 222 221 221 223 224 226 229 233 234 234 233 231 228 229 230 232 235 237 239 240 240 240 241 241 241 243 246 249 251 251 250 250 250 252 254 253 251 248 246 244 245 246 246 245 244 242 242 244 243 240 238 236 234 232 229 226 226 231 234 229 228 232 232
313 301 288 278 271 263 252 238 230 231 236 237 237 240 241 239 234 231 232 232 229 226 223 220 221 224 225 225 228 233 235 235 234 232 230 232 234 236 237 239 241 244 245 244 244 244 244 246 249 251 252 253 252 252 253 255 258 259 256 252 251 249 248 247 246 245 242 239 238 240 241 240 238 237 234 230 229 228 227 232 237 230 223 229 231
320 312 301 293 288 280 271 259 246 238 232 230 233 238 240 241 240 235 233 234 233 229 225 222 221 222 223 224 228 233 235 235 235 236 236 237 238 238 237 239 242 245 247 248 248 249 248 248 250 251 254 256 256 255 255 255 255 257 258 258 258 258 256 254 251 248 247 244 242 241 241 241 239 238 236 232 230 228 225 230 231 223 218 224 229
324 319 312 305 299 294 290 285 278 268 255 243 240 241 240 238 239 238 236 236 235 233 230 228 226 226 226 225 228 232 235 236 236 238 238 237 237 237 236 238 241 244 247 249 249 250 251 252 251 251 253 257 257 256 256 255 255 255 257 260 260 260 259 257 255 253 251 248 245 244 243 242 240 239 237 235 232 229 226 231 232 224 218 224 231
323 319 315 311 307 305 306 304 294 280 273 266 258 252 247 241 240 241 242 241 238 235 234 233 231 230 229 230 232 232 234 236 237 241 243 240 236 235 235 238 242 244 247 250 251 251 254 255 254 253 254 256 257 255 255 255 255 256 258 260 261 260 260 259 258 258 255 249 246 244 243 243 242 240 238 236 233 230 228 231 234 230 226 228 233
317 314 313 311 309 310 311 311 306 293 284 281 273 264 257 251 245 242 243 244 242 237 235 234 235 233 230 229 230 230 232 234 236 239 243 240 234 232 234 239 244 248 251 253 255 256 256 256 256 256 257 258 258 258 256 255 255 257 260 261 261 262 263 263 261 260 258 255 250 245 242 242 242 241 240 238 235 233 232 231 232 232 229 230 231
310 309 310 309 308 309 308 309 310 306 298 291 285 278 270 261 253 245 241 242 242 238 234 233 236 238 236 232 230 229 231 234 234 235 237 235 232 231 235 241 246 250 254 258 259 260 260 260 259 259 260 262 262 260 258 257 258 260 261 261 261 263 266 267 264 262 262 262 258 250 244 242 241 240 239 237 235 235 233 231 230 229 227 227 229
306 305 306 304 304 306 307 308 309 306 299 292 286 282 275 267 261 255 250 245 242 238 235 234 237 240 241 238 234 234 235 235 234 233 233 234 235 235 235 238 243 248 254 259 261 262 263 263 264 264 265 264 262 261 262 264 265 264 263 263 265 266 267 267 265 264 263 260 257 253 250 247 244 241 237 233 232 232 231 228 227 226 225 225 226
303 302 302 301 301 302 304 306 306 305 302 295 287 283 278 268 258 254 254 251 247 243 235 231 237 245 246 241 236 234 235 235 234 233 233 236 241 242 241 240 241 244 250 256 260 262 263 265 267 269 269 269 267 266 267 268 268 268 268 269 270 269 268 266 263 262 261 258 256 254 251 247 242 240 238 234 230 229 228 225 223 222 222 224 225
299 298 298 298 297 298 301 301 300 302 305 298 290 286 283 272 257 251 252 254 256 256 247 232 234 246 250 247 242 237 236 237 238 237 237 239 241 243 245 246 245 244 246 251 257 259 260 261 263 266 267 268 267 266 266 267 268 270 273 273 272 270 268 264 260 259 258 256 254 252 250 246 241 238 238 234 230 228 224 219 220 220 220 221 221
294 294 295 295 295 296 297 294 291 295 300 298 292 288 287 280 264 253 252 252 251 255 253 240 230 234 242 247 248 245 241 241 242 244 245 247 247 247 246 245 244 244 245 249 254 257 260 263 266 270 271 271 270 269 269 270 272 273 275 275 272 269 265 260 257 255 253 251 250 249 248 247 243 240 237 233 232 229 218 211 215 217 216 213 208
290 289 290 291 292 293 293 291 285 282 285 289 289 287 289 288 278 263 256 253 248 244 243 241 236 234 237 240 246 249 247 244 243 244 247 251 256 255 249 245 243 243 246 251 255 259 265 269 273 276 277 278 277 275 274 276 279 280 279 278 275 270 263 257 253 250 248 248 247 247 248 246 242 240 238 235 233 226 210 204 208 205 200 199 194
285 285 285 287 289 289 289 289 284 274 271 275 280 282 283 286 286 276 262 257 255 249 244 243 243 242 238 235 236 240 244 244 243 241 240 243 248 249 245 244 245 245 246 251 256 261 268 274 279 282 284 284 283 280 277 277 278 276 274 272 270 267 262 258 254 248 246 247 247 249 251 249 242 239 235 228 222 215 208 209 208 201 197 198 194
281 281 282 282 283 283 283 283 281 272 263 262 268 275 279 281 284 284 275 265 260 256 253 251 249 248 247 243 237 236 237 239 239 236 231 230 235 237 234 232 235 237 239 243 251 260 268 275 280 282 282 280 278 276 274 272 268 267 268 268 271 272 268 262 257 251 249 250 251 253 256 253 244 238 231 220 212 210 212 214 213 208 203 198 194
283 279 278 277 276 276 277 278 278 274 266 260 260 264 269 273 277 280 277 269 264 261 259 257 254 253 254 252 247 243 241 239 238 236 230 225 227 230 231 231 233 235 235 237 245 255 262 270 276 279 277 274 273 274 276 275 273 274 275 275 276 279 273 261 255 253 252 251 251 253 256 251 237 227 221 214 210 211 211 211 212 209 198 191 191
285 280 277 274 271 271 273 275 276 274 271 268 265 262 263 266 270 273 273 270 267 264 260 257 254 254 257 257 252 249 249 250 250 243 235 232 232 233 235 240 245 245 244 245 251 253 254 262 272 276 276 274 274 275 279 281 280 281 283 281 278 277 273 263 258 260 259 256 255 254 255 251 235 220 213 209 206 206 206 205 205 201 193 191 196
285 281 276 273 271 272 273 274 275 274 270 268 268 268 269 268 265 267 272 274 273 268 264 262 259 255 254 255 253 250 249 250 252 252 248 246 244 244 247 255 259 258 257 259 259 253 247 255 266 271 272 272 273 275 277 279 279 280 281 281 280 280 277 271 266 267 266 262 258 254 252 248 234 217 207 201 199 200 200 199 197 194 192 193 196
282 279 276 273 271 271 271 271 272 272 270 267 265 266 271 271 267 263 262 262 269 276 275 271 267 261 255 253 253 253 251 250 251 253 254 254 254 256 261 267 269 266 263 261 257 248 244 252 262 268 271 270 272 274 275 275 277 278 278 277 278 280 280 275 272 274 274 269 261 252 243 239 231 214 200 194 194 194 193 192 194 194 194 195 198
282 279 276 274 272 271 271 271 271 270 269 268 265 264 268 271 272 270 261 254 260 269 269 266 266 266 262 256 253 254 255 255 253 252 252 253 256 259 263 266 267 265 262 258 252 245 245 251 258 264 267 268 271 274 275 274 275 277 279 280 279 278 279 280 278 278 276 268 258 245 233 228 228 222 200 185 182 182 183 187 192 193 194 198 202
281 278 276 274 273 273 272 271 271 270 269 268 267 266 267 269 272 274 272 265 260 258 256 255 258 262 265 263 258 255 256 257 256 254 253 253 255 257 262 264 263 260 259 255 251 248 249 252 256 259 263 266 269 271 273 273 274 273 273 275 275 275 278 281 280 277 272 258 245 237 226 217 213 210 190 171 169 174 178 182 185 187 191 199 207
281 278 275 272 269 268 269 269 269 269 269 268 267 267 268 268 268 270 270 269 268 266 263 260 257 258 263 265 262 260 260 259 258 257 255 253 252 252 256 258 256 253 252 251 248 247 250 252 253 255 258 262 265 267 268 269 271 270 268 267 268 270 271 270 270 271 268 258 242 225 216 207 200 195 186 177 179 184 186 190 195 199 203 206 208
282 278 276 273 269 267 268 268 268 267 267 268 268 269 269 269 269 269 268 266 266 267 268 267 265 261 262 263 263 264 265 263 261 257 253 250 247 243 241 242 243 243 243 241 238 239 244 250 254 255 257 259 262 264 266 267 268 268 267 266 266 266 262 259 260 262 258 254 248 232 216 211 207 205 203 198 197 199 200 202 204 205 206 206 205
283 279 277 275 274 273 271 270 270 269 269 269 269 268 268 267 266 266 266 265 265 265 266 268 268 262 256 256 255 253 249 252 261 264 259 253 245 237 233 234 239 243 245 243 240 239 242 245 249 251 254 257 260 262 263 264 265 265 266 266 263 262 262 260 256 253 250 248 247 240 229 219 212 210 209 206 205 208 209 207 205 204 205 206 205
281 278 276 275 276 277 274 271 270 269 267 266 264 263 263 263 262 262 262 262 264 264 264 266 266 261 255 247 236 228 230 240 251 257 256 251 245 239 234 234 238 243 247 249 248 248 248 249 249 250 252 255 259 261 261 262 263 264 264 264 260 257 256 254 249 245 244 243 242 239 234 229 220 213 213 212 212 214 213 210 207 206 204 205 206
282 279 277 275 275 275 273 271 270 268 266 264 262 262 263 262 262 263 263 262 261 261 261 262 262 261 261 251 229 219 229 239 245 247 245 238 234 232 230 233 240 244 246 248 249 250 251 252 253 254 253 253 256 259 260 260 261 262 262 263 264 260 254 249 244 241 241 242 239 234 230 229 226 220 216 216 216 215 213 210 206 203 202 204 208
282 279 278 275 274 273 272 271 270 268 267 267 267 267 267 267 266 267 266 264 262 260 260 262 261 260 261 255 241 237 246 253 257 261 258 250 242 235 231 234 242 246 247 248 249 248 248 250 251 251 251 250 252 256 258 258 259 260 258 256 258 259 257 253 247 241 240 241 239 234 228 225 223 219 216 216 217 217 215 213 208 204 206 210 213
287 285 283 280 276 273 269 268 270 269 267 267 267 268 269 269 269 270 268 267 265 261 258 260 261 259 255 248 244 247 257 263 266 266 262 259 257 251 245 244 246 248 249 250 250 249 249 249 248 248 248 248 246 247 250 253 254 255 254 253 253 253 253 255 252 245 240 238 237 235 232 227 223 221 219 218 219 219 220 220 216 210 210 214 216
295 293 290 286 283 280 274 271 272 271 267 263 259 261 265 266 265 266 265 264 265 263 259 258 261 262 258 251 250 254 258 260 262 264 262 261 260 256 254 254 253 253 253 253 253 254 254 253 252 250 248 247 245 243 244 246 248 249 250 250 249 248 247 249 251 250 247 243 238 234 232 230 227 226 224 221 218 216 218 219 219 216 215 215 217
296 293 289 284 284 286 286 285 285 281 277 272 264 260 261 261 260 263 265 263 262 263 262 260 263 267 263 252 250 254 255 252 253 256 258 262 263 261 260 260 258 258 259 257 256 256 255 255 257 256 253 250 248 245 244 244 244 245 247 247 247 247 245 245 245 245 245 244 241 236 233 231 229 228 226 221 218 219 220 218 216 217 217 216 216
308 301 299 294 288 282 279 280 283 284 284 283 279 273 271 268 261 257 258 258 256 257 261 262 263 267 266 254 244 246 251 254 258 260 261 263 266 265 266 267 267 266 267 266 264 262 260 258 258 260 260 259 256 252 248 245 242 242 243 245 245 245 243 241 241 240 240 240 239 236 233 231 229 227 224 218 216 221 223 218 213 214 216 216 216
338 334 329 321 314 305 289 276 274 280 284 286 285 279 273 270 271 272 271 263 251 245 251 259 260 259 261 257 250 251 257 261 266 269 269 268 270 271 271 273 274 273 273 273 271 270 268 265 263 263 264 265 262 258 252 247 244 243 243 244 243 243 242 240 239 239 237 236 235 233 233 232 230 227 223 219 219 223 226 222 216 214 215 216 215
355 359 1 358 352 345 332 316 300 289 287 291 294 288 276 270 279 292 297 294 281 262 251 256 261 261 265 267 265 267 271 273 274 277 276 276 277 278 278 278 279 277 277 277 276 275 274 273 270 268 266 266 267 265 260 254 250 247 246 245 244 244 244 243 239 236 236 236 235 234 233 232 231 227 222 220 221 223 226 226 221 216 215 215 213
356 2 6 10 12 9 1 354 348 338 330 331 326 317 310 305 300 296 300 307 306 295 277 265 259 255 259 269 273 275 279 283 285 288 289 289 288 286 285 286 286 283 280 279 277 276 276 276 275 273 270 267 268 268 266 262 256 251 247 246 245 245 244 242 238 235 235 236 237 237 236 233 232 229 225 223 224 224 226 227 223 217 215 215 212
359 2 5 7 10 10 7 7 9 7 5 7 4 357 351 349 343 329 315 311 315 317 314 307 300 290 285 294 302 304 307 310 308 303 301 301 300 298 295 293 291 290 288 284 280 277 275 274 273 272 270 266 264 264 264 263 261 257 252 248 246 245 243 240 237 237 236 235 235 237 237 236 236 235 232 230 230 230 229 229 225 219 218 217 213
3 5 6 8 10 9 8 8 10 11 9 9 10 8 5 3 2 358 352 345 349 356 355 350 348 349 351 352 349 344 338 335 331 324 318 315 313 311 307 303 300 298 295 291 287 283 280 277 274 272 270 266 262 260 258 258 260 260 256 251 248 246 243 239 237 236 236 235 235 235 237 238 240 241 239 235 234 233 231 230 226 221 220 221 218
7 8 9 10 10 10 9 9 9 10 9 9 10 9 6 5 7 8 7 7 9 13 13 10 6 5 5 5 4 1 355 349 344 339 334 332 331 330 327 324 322 317 310 304 300 295 288 282 277 275 273 270 266 262 259 257 259 260 258 253 251 250 248 246 242 238 236 236 237 239 241 242 242 243 242 238 235 233 231 229 226 222 222 223 222
9 10 11 12 12 11 11 11 10 9 8 8 8 8 8 7 7 8 9 11 11 11 11 12 10 7 7 8 7 3 358 353 347 342 338 335 332 330 328 326 325 321 317 313 310 305 300 294 286 279 276 273 269 266 262 259 258 259 259 258 255 253 252 251 250 246 242 241 241 242 245 247 246 244 243 241 237 234 232 231 230 230 228 226 223